Weather History for Sheridan, WY

Change the Weather History Date:

Sunday, January 22, 2012

  Actual Average Record
Temperature  
Mean Temperature 28 °F 24 °F  
Max Temperature 38 °F 37 °F 68 °F (1981)
Min Temperature 17 °F 12 °F -28 °F (1927)
Degree Days  
Heating Degree Days 37 41  
Month to date heating degree days 852 911  
Since 1 July heating degree days 3689 4094  
Cooling Degree Days 0 0  
Month to date cooling degree days 0 0  
Year to date cooling degree days 0 0  
Moisture  
Dew Point 21 °F    
Average Humidity 69    
Maximum Humidity 100    
Minimum Humidity 37    
Precipitation  
Precipitation T in 0.02 in 0.88 in (1948)
Month to date precipitation 0.29 0.38  
Year to date precipitation 0.29 0.38  
Sea Level Pressure  
Sea Level Pressure 29.75 in    
Wind  
Wind Speed 13 mph (NW)    
Max Wind Speed 35 mph    
Max Gust Speed 44 mph    
Visibility 9 miles    
Events Snow    
T = Trace of Precipitation, MM = Missing Value Source: NWS Daily Summary

Daily Weather History Graph

Daily Weather History Graph

Search for Another Location

Airport:

Trip Planner

Search our weather history database for the weather conditions in past years. The results will help you decide how hot, cold, wet, or windy it might be!

Date:

Astronomy

Jan. 22, 2012 Rise Set
Actual Time 7:37 AM MST 5:01 PM MST
Civil Twilight 7:05 AM MST 5:33 PM MST
Nautical Twilight 6:29 AM MST 6:09 PM MST
Astronomical Twilight 5:54 AM MST 6:44 PM MST
Moon 6:55 AM MST (1/22) 4:48 PM MST (1/22)
Length of Visible Light 10h 28m
Length of Day
9h 24m
Waning Crescent, 0% of the Moon is Illuminated
Jan 22
Waning Crescent
Jan 23
New
Jan 30
First Quarter
Feb 7
Full
Feb 14
Last Quarter

Hourly Weather History & Observations

Time (MST) Temp. Windchill Dew Point Humidity Pressure Visibility Wind Dir Wind Speed Gust Speed Precip Events Conditions
12:53 AM 37.9 °F 28.2 °F 33.1 °F 83% 29.45 in 10.0 mi NNW 18.4 mph 24.2 mph 0.01 in   Overcast
1:40 AM 35.6 °F 23.2 °F 32.0 °F 87% 29.45 in 8.0 mi NW 26.5 mph 34.5 mph 0.00 in Snow Light Snow
1:53 AM 34.0 °F 21.8 °F 33.1 °F 96% 29.53 in 9.0 mi NW 23.0 mph 28.8 mph 0.00 in   Overcast
2:13 AM 33.8 °F 20.1 °F 32.0 °F 93% 29.49 in 9.0 mi NW 29.9 mph 43.7 mph 0.00 in Snow Light Snow
2:53 AM 33.1 °F 19.6 °F 30.9 °F 92% 29.61 in 2.5 mi NW 27.6 mph 42.6 mph 0.00 in Snow Light Snow
3:02 AM 33.8 °F 21.0 °F 30.2 °F 87% 29.54 in 4.0 mi NW 25.3 mph 35.7 mph 0.00 in Snow Light Snow
3:53 AM 33.1 °F 22.6 °F 30.0 °F 89% 29.65 in 10.0 mi NW 16.1 mph - 0.00 in   Overcast
4:53 AM 32.0 °F 24.2 °F 27.0 °F 82% 29.68 in 10.0 mi WNW 9.2 mph - N/A   Overcast
5:53 AM 33.1 °F 24.4 °F 24.1 °F 70% 29.70 in 10.0 mi NNW 11.5 mph - N/A   Mostly Cloudy
6:53 AM 32.0 °F 22.5 °F 21.0 °F 64% 29.74 in 10.0 mi NNW 12.7 mph - N/A   Mostly Cloudy
7:53 AM 28.9 °F 18.6 °F 19.9 °F 69% 29.79 in 10.0 mi NNW 12.7 mph - N/A   Clear
8:53 AM 28.4 °F 18.5 °F 17.6 °F 64% 29.73 in 10.0 mi NNW 11.5 mph - N/A   Clear
9:53 AM 34.0 °F 25.5 °F 19.0 °F 54% 29.83 in 10.0 mi NW 11.5 mph - N/A   Clear
10:53 AM 36.0 °F 26.3 °F 19.0 °F 50% 29.83 in 10.0 mi NNW 16.1 mph 21.9 mph N/A   Clear
11:53 AM 37.0 °F 25.9 °F 17.1 °F 44% 29.83 in 10.0 mi NNW 23.0 mph 32.2 mph N/A   Clear
12:53 PM 37.4 °F 25.6 °F 14.0 °F 38% 29.77 in 10.0 mi NNW 26.5 mph 32.2 mph N/A   Clear
1:53 PM 37.0 °F 25.1 °F 14.0 °F 39% 29.81 in 10.0 mi NNW 26.5 mph 35.7 mph N/A   Clear
2:53 PM 35.1 °F 24.8 °F 14.0 °F 42% 29.85 in 10.0 mi NNW 17.3 mph - N/A   Mostly Cloudy
3:53 PM 35.1 °F 25.2 °F 15.1 °F 44% 29.87 in 10.0 mi NNW 16.1 mph - N/A   Overcast
4:53 PM 30.2 °F 23.4 °F 15.8 °F 55% 29.82 in 10.0 mi NW 6.9 mph - N/A   Partly Cloudy
5:53 PM 26.1 °F 20.5 °F 17.1 °F 69% 29.93 in 10.0 mi West 4.6 mph - N/A   Clear
6:53 PM 23.0 °F 17.0 °F 15.1 °F 72% 29.94 in 10.0 mi West 4.6 mph - N/A   Clear
7:53 PM 21.0 °F - 15.1 °F 78% 29.95 in 10.0 mi Calm Calm - N/A   Clear
8:53 PM 18.0 °F 9.8 °F 14.0 °F 84% 29.96 in 10.0 mi SSW 5.8 mph - N/A   Clear
9:53 PM 19.4 °F - 12.2 °F 74% 29.81 in 10.0 mi Calm Calm - N/A   Clear
10:53 PM 19.0 °F 11.1 °F 12.9 °F 77% 29.92 in 10.0 mi South 5.8 mph - N/A   Clear
11:53 PM 21.0 °F - 12.9 °F 71% 29.90 in 10.0 mi Calm Calm - N/A   Clear